Year,Month,Day,Hour,Minute,Value (Times are PST for temperature in C)
2016,06,16,00,00,7.20
2016,06,16,00,01,7.20
2016,06,16,00,02,7.20
2016,06,16,00,03,7.20
2016,06,16,00,04,7.10
2016,06,16,00,05,7.10
2016,06,16,00,06,7.10
2016,06,16,00,07,7.10
2016,06,16,00,08,7.10
2016,06,16,00,09,7.10
2016,06,16,00,10,7.10
2016,06,16,00,11,7.10
2016,06,16,00,12,7.10
2016,06,16,00,44,7.10
2016,06,16,00,45,7.10
2016,06,16,00,46,7.10
2016,06,16,00,47,7.00
2016,06,16,00,48,7.00
2016,06,16,00,49,6.90
2016,06,16,00,50,6.90
2016,06,16,00,51,6.90
2016,06,16,00,52,6.90
2016,06,16,00,53,6.80
2016,06,16,00,54,6.80
2016,06,16,00,55,6.80
2016,06,16,00,56,6.70
2016,06,16,00,57,6.70
2016,06,16,00,58,6.60
2016,06,16,00,59,6.60
2016,06,16,01,00,6.60
2016,06,16,01,01,6.50
2016,06,16,01,02,6.50
2016,06,16,01,03,6.50
2016,06,16,01,04,6.50
2016,06,16,01,05,6.40
2016,06,16,01,06,6.40
2016,06,16,01,07,6.40
2016,06,16,01,08,6.40
2016,06,16,01,09,6.40
2016,06,16,01,10,6.40
2016,06,16,01,11,6.40
2016,06,16,01,12,6.40
2016,06,16,01,13,6.40
2016,06,16,01,14,6.40
2016,06,16,01,15,6.30
2016,06,16,01,16,6.30
2016,06,16,01,17,6.30
2016,06,16,01,18,6.30
2016,06,16,01,19,6.30
2016,06,16,01,20,6.30
2016,06,16,01,21,6.30
2016,06,16,01,22,6.30
2016,06,16,01,23,6.30
2016,06,16,01,24,6.30
2016,06,16,01,25,6.30
2016,06,16,01,26,6.30
2016,06,16,01,27,6.30
2016,06,16,01,28,6.30
2016,06,16,01,29,6.30
2016,06,16,01,30,6.30
2016,06,16,01,31,6.30
2016,06,16,01,32,6.30
2016,06,16,01,33,6.30
2016,06,16,01,34,6.30
2016,06,16,01,35,6.30
2016,06,16,01,36,6.20
2016,06,16,01,37,6.20
2016,06,16,01,38,6.20
2016,06,16,01,39,6.20
2016,06,16,01,40,6.20
2016,06,16,01,41,6.20
2016,06,16,01,42,6.20
2016,06,16,01,43,6.20
2016,06,16,01,44,6.20
2016,06,16,01,45,6.20
2016,06,16,01,46,6.20
2016,06,16,01,47,6.20
2016,06,16,01,48,6.20
2016,06,16,01,49,6.20
2016,06,16,01,50,6.20
2016,06,16,01,51,6.20
2016,06,16,01,52,6.20
2016,06,16,01,53,6.20
2016,06,16,01,54,6.20
2016,06,16,01,55,6.20
2016,06,16,01,56,6.20
2016,06,16,01,57,6.20
2016,06,16,01,58,6.20
2016,06,16,01,59,6.20
2016,06,16,02,00,6.20
2016,06,16,02,01,6.20
2016,06,16,02,02,6.20
2016,06,16,02,03,6.20
2016,06,16,02,04,6.20
2016,06,16,02,05,6.20
2016,06,16,02,06,6.20
2016,06,16,02,07,6.20
2016,06,16,02,08,6.20
2016,06,16,02,09,6.20
2016,06,16,02,10,6.30
2016,06,16,02,11,6.30
2016,06,16,02,12,6.30
2016,06,16,02,13,6.30
2016,06,16,02,14,6.20
2016,06,16,02,15,6.30
2016,06,16,02,16,6.30
2016,06,16,02,17,6.20
2016,06,16,02,18,6.20
2016,06,16,02,19,6.20
2016,06,16,02,20,6.20
2016,06,16,02,21,6.20
2016,06,16,02,22,6.20
2016,06,16,02,23,6.20
2016,06,16,02,24,6.20
2016,06,16,02,25,6.20
2016,06,16,02,26,6.20
2016,06,16,02,27,6.20
2016,06,16,02,28,6.20
2016,06,16,02,29,6.20
2016,06,16,02,30,6.20
2016,06,16,02,31,6.20
2016,06,16,02,32,6.20
2016,06,16,02,33,6.20
2016,06,16,02,34,6.10
2016,06,16,02,35,6.10
2016,06,16,02,36,6.10
2016,06,16,02,37,6.10
2016,06,16,02,38,6.10
2016,06,16,02,39,6.10
2016,06,16,02,40,6.10
2016,06,16,02,41,6.00
2016,06,16,02,42,6.00
2016,06,16,02,43,6.00
2016,06,16,02,44,6.00
2016,06,16,02,45,5.90
2016,06,16,02,46,5.90
2016,06,16,02,47,5.90
2016,06,16,02,48,5.90
2016,06,16,02,49,5.90
2016,06,16,02,50,5.90
2016,06,16,02,51,5.90
2016,06,16,02,52,5.90
2016,06,16,02,53,5.90
2016,06,16,02,54,5.90
2016,06,16,02,55,5.90
2016,06,16,02,56,5.90
2016,06,16,02,57,5.90
2016,06,16,02,58,5.90
2016,06,16,02,59,5.90
2016,06,16,03,00,5.90
2016,06,16,03,01,5.90
2016,06,16,03,02,5.90
2016,06,16,03,03,5.90
2016,06,16,03,04,5.90
2016,06,16,03,05,5.90
2016,06,16,03,06,5.90
2016,06,16,03,07,5.90
2016,06,16,03,08,5.90
2016,06,16,03,09,5.90
2016,06,16,03,10,5.90
2016,06,16,03,11,5.90
2016,06,16,03,12,5.90
2016,06,16,03,13,5.90
2016,06,16,03,14,5.80
2016,06,16,03,15,5.80
2016,06,16,03,16,5.80
2016,06,16,03,17,5.80
2016,06,16,03,18,5.80
2016,06,16,03,19,5.80
2016,06,16,03,20,5.80
2016,06,16,03,21,5.80
2016,06,16,04,04,6.00
2016,06,16,04,05,6.00
2016,06,16,04,06,6.10
2016,06,16,04,07,6.10
2016,06,16,04,08,6.20
2016,06,16,04,09,6.20
2016,06,16,04,10,6.20
2016,06,16,04,11,6.20
2016,06,16,04,12,6.20
2016,06,16,04,13,6.20
2016,06,16,04,14,6.20
2016,06,16,04,15,6.30
2016,06,16,04,16,6.30
2016,06,16,04,17,6.30
2016,06,16,04,18,6.30
2016,06,16,04,19,6.30
2016,06,16,04,20,6.30
2016,06,16,04,21,6.30
2016,06,16,04,22,6.30
2016,06,16,04,23,6.30
2016,06,16,04,24,6.30
2016,06,16,04,25,6.30
2016,06,16,04,26,6.30
2016,06,16,04,27,6.40
2016,06,16,04,28,6.40
2016,06,16,04,29,6.40
2016,06,16,04,30,6.40
2016,06,16,04,31,6.40
2016,06,16,04,32,6.40
2016,06,16,04,33,6.40
2016,06,16,04,34,6.40
2016,06,16,04,35,6.40
2016,06,16,04,36,6.40
2016,06,16,04,37,6.40
2016,06,16,04,38,6.40
2016,06,16,04,39,6.40
2016,06,16,04,40,6.40
2016,06,16,04,41,6.40
2016,06,16,04,42,6.40
2016,06,16,04,43,6.40
2016,06,16,04,44,6.40
2016,06,16,04,45,6.40
2016,06,16,04,46,6.40
2016,06,16,04,47,6.50
2016,06,16,04,48,6.50
2016,06,16,04,49,6.50
2016,06,16,04,50,6.60
2016,06,16,04,51,6.60
2016,06,16,04,52,6.60
2016,06,16,04,53,6.60
2016,06,16,04,54,6.60
2016,06,16,04,55,6.70
2016,06,16,04,56,6.70
2016,06,16,04,57,6.70
2016,06,16,04,58,6.70
2016,06,16,04,59,6.80
2016,06,16,05,00,6.80
2016,06,16,05,01,6.80
2016,06,16,05,02,6.80
2016,06,16,05,03,6.80
2016,06,16,05,04,6.80
2016,06,16,05,05,6.80
2016,06,16,05,06,6.80
2016,06,16,05,07,6.80
2016,06,16,05,08,6.80
2016,06,16,05,09,6.80
2016,06,16,05,10,6.80
2016,06,16,05,11,6.80
2016,06,16,05,12,6.80
2016,06,16,05,13,6.80
2016,06,16,05,14,6.80
2016,06,16,05,15,6.80
2016,06,16,05,16,6.80
2016,06,16,05,17,6.80
2016,06,16,05,18,6.80
2016,06,16,05,19,6.80
2016,06,16,05,20,6.80
2016,06,16,05,21,6.90
2016,06,16,05,22,6.90
2016,06,16,05,23,7.00
2016,06,16,05,24,7.00
2016,06,16,05,25,7.00
2016,06,16,05,26,7.10
2016,06,16,05,27,7.10
2016,06,16,05,28,7.10
2016,06,16,05,29,7.10
2016,06,16,05,30,7.10
2016,06,16,05,31,7.10
2016,06,16,05,32,7.10
2016,06,16,05,33,7.10
2016,06,16,05,34,7.10
2016,06,16,05,35,7.10
2016,06,16,05,36,7.10
2016,06,16,05,37,7.10
2016,06,16,05,38,7.10
2016,06,16,05,39,7.10
2016,06,16,05,40,7.20
2016,06,16,05,41,7.20
2016,06,16,05,42,7.20
2016,06,16,05,43,7.20
2016,06,16,05,44,7.20
2016,06,16,05,45,7.20
2016,06,16,05,46,7.20
2016,06,16,05,47,7.20
2016,06,16,05,48,7.20
2016,06,16,05,49,7.20
2016,06,16,05,50,7.20
2016,06,16,05,51,7.20
2016,06,16,05,52,7.20
2016,06,16,05,53,7.20
2016,06,16,05,54,7.20
2016,06,16,05,55,7.20
2016,06,16,05,56,7.20
2016,06,16,05,57,7.20
2016,06,16,05,58,7.20
2016,06,16,05,59,7.20
2016,06,16,06,00,7.20
2016,06,16,06,01,7.20
2016,06,16,06,02,7.20
2016,06,16,06,03,7.20
2016,06,16,06,04,7.20
2016,06,16,06,05,7.30
2016,06,16,06,06,7.30
2016,06,16,06,07,7.30
2016,06,16,06,08,7.30
2016,06,16,06,09,7.30
2016,06,16,06,10,7.30
2016,06,16,06,11,7.30
2016,06,16,06,12,7.40
2016,06,16,06,13,7.40
2016,06,16,06,14,7.40
2016,06,16,06,15,7.40
2016,06,16,06,16,7.40
2016,06,16,06,17,7.50
2016,06,16,06,18,7.50
2016,06,16,06,19,7.50
2016,06,16,06,20,7.60
2016,06,16,06,21,7.60
2016,06,16,06,22,7.60
2016,06,16,06,23,7.60
2016,06,16,06,24,7.60
2016,06,16,06,25,7.60
2016,06,16,06,26,7.60
2016,06,16,06,27,7.60
2016,06,16,06,28,7.60
2016,06,16,06,29,7.70
2016,06,16,06,30,7.70
2016,06,16,06,31,7.70
2016,06,16,06,32,7.70
2016,06,16,06,33,7.70
2016,06,16,06,34,7.80
2016,06,16,06,35,7.80
2016,06,16,06,36,7.80
2016,06,16,06,37,7.80
2016,06,16,06,38,7.90
2016,06,16,06,39,7.90
2016,06,16,06,40,7.90
2016,06,16,06,41,7.90
2016,06,16,06,42,8.00
2016,06,16,06,43,8.00
2016,06,16,06,44,8.00
2016,06,16,06,45,8.10
2016,06,16,06,46,8.10
2016,06,16,06,47,8.10
2016,06,16,06,48,8.20
2016,06,16,06,49,8.20
2016,06,16,06,50,8.20
2016,06,16,06,51,8.20
2016,06,16,06,52,8.30
2016,06,16,06,53,8.30
2016,06,16,06,54,8.30
2016,06,16,06,55,8.30
2016,06,16,06,56,8.40
2016,06,16,06,57,8.40
2016,06,16,06,58,8.50
2016,06,16,06,59,8.50
2016,06,16,07,00,8.60
2016,06,16,07,01,8.60
2016,06,16,07,02,8.60
2016,06,16,07,03,8.70
2016,06,16,07,04,8.70
2016,06,16,07,05,8.80
2016,06,16,07,06,8.80
2016,06,16,07,07,8.90
2016,06,16,07,08,9.00
2016,06,16,07,09,9.00
2016,06,16,07,10,9.10
2016,06,16,07,11,9.20
2016,06,16,07,12,9.20
2016,06,16,07,13,9.30
2016,06,16,07,14,9.40
2016,06,16,07,15,9.40
2016,06,16,07,16,9.50
2016,06,16,07,17,9.50
2016,06,16,07,18,9.60
2016,06,16,07,19,9.60
2016,06,16,07,20,9.60
2016,06,16,07,21,9.70
2016,06,16,07,22,9.70
2016,06,16,07,23,9.70
2016,06,16,07,24,9.80
2016,06,16,07,25,9.80
2016,06,16,07,26,9.90
2016,06,16,07,27,9.90
2016,06,16,07,28,10.00
2016,06,16,07,29,10.00
2016,06,16,07,30,10.10
2016,06,16,07,31,10.10
2016,06,16,07,32,10.20
2016,06,16,07,33,10.20
2016,06,16,07,34,10.20
2016,06,16,07,35,10.20
2016,06,16,07,36,10.20
2016,06,16,07,37,10.30
2016,06,16,07,38,10.30
2016,06,16,07,39,10.30
2016,06,16,07,40,10.30
2016,06,16,07,41,10.30
2016,06,16,07,42,10.40
2016,06,16,07,43,10.50
2016,06,16,07,44,10.60
2016,06,16,07,45,10.60
2016,06,16,07,46,10.70
2016,06,16,07,47,10.70
2016,06,16,07,48,10.80
2016,06,16,07,49,10.80
2016,06,16,07,50,10.90
2016,06,16,07,51,10.90
2016,06,16,07,52,10.90
2016,06,16,07,53,11.00
2016,06,16,07,54,11.00
2016,06,16,07,55,11.00
2016,06,16,07,56,11.10
2016,06,16,07,57,11.10
2016,06,16,07,58,11.10
2016,06,16,07,59,11.10
2016,06,16,08,00,11.10
2016,06,16,08,01,11.10
2016,06,16,08,02,11.20
2016,06,16,08,03,11.20
2016,06,16,08,04,11.20
2016,06,16,08,05,11.30
2016,06,16,08,06,11.40
2016,06,16,08,07,11.50
2016,06,16,08,08,11.60
2016,06,16,08,09,11.70
2016,06,16,08,10,11.70
2016,06,16,08,11,11.80
2016,06,16,08,12,11.80
2016,06,16,08,13,11.90
2016,06,16,08,14,12.00
2016,06,16,08,15,12.00
2016,06,16,08,16,12.10
2016,06,16,08,17,12.20
2016,06,16,08,18,12.20
2016,06,16,08,19,12.30
2016,06,16,08,20,12.30
2016,06,16,08,21,12.20
2016,06,16,08,22,12.10
2016,06,16,08,23,12.10
2016,06,16,08,24,12.10
2016,06,16,08,25,12.00
2016,06,16,08,26,11.90
2016,06,16,08,27,11.80
2016,06,16,08,28,11.70
2016,06,16,08,29,11.70
2016,06,16,08,30,11.60
2016,06,16,08,31,11.60
2016,06,16,08,32,11.60
2016,06,16,08,33,11.70
2016,06,16,08,34,11.70
2016,06,16,08,35,11.70
2016,06,16,08,36,11.70
2016,06,16,08,37,11.80
2016,06,16,08,38,11.80
2016,06,16,08,39,11.90
2016,06,16,08,40,12.00
2016,06,16,08,41,12.10
2016,06,16,08,42,12.20
2016,06,16,08,43,12.30
2016,06,16,08,44,12.50
2016,06,16,08,45,12.60
2016,06,16,08,46,12.70
2016,06,16,08,47,12.60
2016,06,16,08,48,12.60
2016,06,16,08,49,12.70
2016,06,16,08,50,12.80
2016,06,16,08,51,12.90
2016,06,16,08,52,13.10
2016,06,16,08,53,13.10
2016,06,16,08,54,13.20
2016,06,16,08,55,13.30
2016,06,16,08,56,13.30
2016,06,16,08,57,13.20
2016,06,16,08,58,13.20
2016,06,16,08,59,13.10
2016,06,16,09,00,13.00
2016,06,16,09,01,12.90
2016,06,16,09,02,12.90
2016,06,16,09,03,12.90
2016,06,16,09,04,13.00
2016,06,16,09,05,13.10
2016,06,16,09,06,13.10
2016,06,16,09,07,13.20
2016,06,16,09,08,13.20
2016,06,16,09,09,13.30
2016,06,16,09,10,13.40
2016,06,16,09,11,13.40
2016,06,16,09,12,13.50
2016,06,16,09,13,13.60
2016,06,16,09,14,13.60
2016,06,16,09,15,13.70
2016,06,16,09,16,13.80
2016,06,16,09,17,13.80
2016,06,16,09,18,13.80
2016,06,16,09,19,13.80
2016,06,16,09,20,13.80
2016,06,16,09,21,13.90
2016,06,16,09,22,13.90
2016,06,16,09,23,13.90
2016,06,16,09,24,13.80
2016,06,16,09,25,13.80
2016,06,16,09,26,13.80
2016,06,16,09,27,13.80
2016,06,16,09,28,13.90
2016,06,16,09,29,13.90
2016,06,16,09,30,14.00
2016,06,16,09,31,14.00
2016,06,16,09,32,14.10
2016,06,16,09,33,14.20
2016,06,16,09,34,14.30
2016,06,16,09,35,14.30
2016,06,16,09,36,14.40
2016,06,16,09,37,14.30
2016,06,16,09,38,14.20
2016,06,16,09,39,14.20
2016,06,16,09,40,14.10
2016,06,16,09,41,14.10
2016,06,16,09,42,14.10
2016,06,16,09,43,14.10
2016,06,16,09,44,14.10
2016,06,16,09,45,14.10
2016,06,16,09,46,14.10
2016,06,16,09,47,14.10
2016,06,16,09,48,14.20
2016,06,16,09,49,14.20
2016,06,16,09,50,14.20
2016,06,16,09,51,14.20
2016,06,16,09,52,14.10
2016,06,16,09,53,14.10
2016,06,16,09,54,14.10
2016,06,16,09,55,14.10
2016,06,16,09,56,14.10
2016,06,16,09,57,14.20
2016,06,16,09,58,14.20
2016,06,16,09,59,14.20
2016,06,16,10,00,14.20
2016,06,16,10,01,14.20
2016,06,16,10,02,14.30
2016,06,16,10,03,14.40
2016,06,16,10,04,14.50
2016,06,16,10,05,14.60
2016,06,16,10,06,14.70
2016,06,16,10,07,14.70
2016,06,16,10,08,14.70
2016,06,16,10,09,14.80
2016,06,16,10,10,14.80
2016,06,16,10,11,14.80
2016,06,16,10,12,14.80
2016,06,16,10,13,14.70
2016,06,16,10,14,14.70
2016,06,16,10,15,14.70
2016,06,16,10,16,14.70
2016,06,16,10,17,14.80
2016,06,16,10,18,14.80
2016,06,16,10,19,14.80
2016,06,16,10,20,14.90
2016,06,16,10,21,14.90
2016,06,16,10,22,14.90
2016,06,16,10,23,14.90
2016,06,16,10,24,14.90
2016,06,16,10,25,14.90
2016,06,16,10,26,14.90
2016,06,16,10,27,14.90
2016,06,16,10,28,14.90
2016,06,16,10,29,15.00
2016,06,16,10,30,15.00
2016,06,16,10,31,15.10
2016,06,16,10,32,15.20
2016,06,16,10,33,15.20
2016,06,16,10,34,15.20
2016,06,16,10,35,15.20
2016,06,16,10,36,15.20
2016,06,16,10,37,15.10
2016,06,16,10,38,15.10
2016,06,16,10,39,15.10
2016,06,16,10,40,15.10
2016,06,16,10,41,15.10
2016,06,16,10,42,15.20
2016,06,16,10,43,15.30
2016,06,16,10,44,15.40
2016,06,16,10,45,15.40
2016,06,16,10,46,15.50
2016,06,16,10,47,15.60
2016,06,16,10,48,15.70
2016,06,16,10,49,15.80
2016,06,16,10,50,15.90
2016,06,16,10,51,16.00
2016,06,16,10,52,16.00
2016,06,16,10,53,15.90
2016,06,16,10,54,15.80
2016,06,16,10,55,15.80
2016,06,16,10,56,15.90
2016,06,16,10,57,16.00
2016,06,16,10,58,16.00
2016,06,16,10,59,16.10
2016,06,16,11,00,16.30
2016,06,16,11,01,16.40
2016,06,16,11,02,16.50
2016,06,16,11,03,16.60
2016,06,16,11,04,16.60
2016,06,16,11,05,16.50
2016,06,16,11,06,16.50
2016,06,16,11,07,16.50
2016,06,16,11,08,16.60
2016,06,16,11,09,16.60
2016,06,16,11,10,16.70
2016,06,16,11,11,16.70
2016,06,16,11,12,16.60
2016,06,16,11,13,16.70
2016,06,16,11,14,16.60
2016,06,16,11,15,16.50
2016,06,16,11,16,16.40
2016,06,16,11,17,16.40
2016,06,16,11,18,16.50
2016,06,16,11,19,16.60
2016,06,16,11,20,16.70
2016,06,16,11,21,16.70
2016,06,16,11,22,16.70
2016,06,16,11,23,16.70
2016,06,16,11,24,16.70
2016,06,16,11,25,16.70
2016,06,16,11,26,16.60
2016,06,16,11,27,16.60
2016,06,16,11,28,16.50
2016,06,16,11,29,16.50
2016,06,16,11,30,16.60
2016,06,16,11,31,16.60
2016,06,16,11,32,16.60
2016,06,16,11,33,16.70
2016,06,16,11,34,16.70
2016,06,16,11,35,16.80
2016,06,16,11,36,16.90
2016,06,16,11,37,16.90
2016,06,16,11,38,16.90
2016,06,16,11,39,16.90
2016,06,16,11,40,16.90
2016,06,16,11,41,17.00
2016,06,16,11,42,17.00
2016,06,16,11,43,17.00
2016,06,16,11,44,16.90
2016,06,16,11,45,17.00
2016,06,16,11,46,17.10
2016,06,16,11,47,17.20
2016,06,16,11,48,17.20
2016,06,16,11,49,17.20
2016,06,16,11,50,17.00
2016,06,16,11,51,17.00
2016,06,16,11,52,17.00
2016,06,16,11,53,17.10
2016,06,16,11,54,17.20
2016,06,16,11,55,17.30
2016,06,16,11,56,17.40
2016,06,16,11,57,17.50
2016,06,16,11,58,17.60
2016,06,16,11,59,17.60
2016,06,16,12,00,17.70
2016,06,16,12,01,17.70
2016,06,16,12,02,17.80
2016,06,16,12,03,17.90
2016,06,16,12,04,17.90
2016,06,16,12,05,17.80
2016,06,16,12,06,17.70
2016,06,16,12,07,17.70
2016,06,16,12,08,17.70
2016,06,16,12,09,17.80
2016,06,16,12,10,17.70
2016,06,16,12,11,17.70
2016,06,16,12,12,17.70
2016,06,16,12,13,17.60
2016,06,16,12,14,17.60
2016,06,16,12,15,17.60
2016,06,16,12,16,17.50
2016,06,16,12,17,17.50
2016,06,16,12,18,17.50
2016,06,16,12,19,17.50
2016,06,16,12,20,17.60
2016,06,16,12,21,17.60
2016,06,16,12,22,17.70
2016,06,16,12,23,17.70
2016,06,16,12,24,17.70
2016,06,16,12,25,17.70
2016,06,16,12,26,17.80
2016,06,16,12,27,17.80
2016,06,16,12,28,17.90
2016,06,16,12,29,18.00
2016,06,16,12,30,18.10
2016,06,16,12,31,18.20
2016,06,16,12,32,18.20
2016,06,16,12,33,18.20
2016,06,16,12,34,18.10
2016,06,16,12,35,18.10
2016,06,16,12,36,18.10
2016,06,16,12,37,18.10
2016,06,16,12,38,18.10
2016,06,16,12,39,18.10
2016,06,16,12,40,18.20
2016,06,16,12,41,18.20
2016,06,16,12,42,18.20
2016,06,16,12,43,18.30
2016,06,16,12,44,18.30
2016,06,16,12,45,18.30
2016,06,16,12,46,18.40
2016,06,16,12,47,18.30
2016,06,16,12,48,18.20
2016,06,16,12,49,18.10
2016,06,16,12,50,18.00
2016,06,16,12,51,17.90
2016,06,16,12,52,17.80
2016,06,16,12,53,17.80
2016,06,16,12,54,17.70
2016,06,16,12,55,17.80
2016,06,16,12,56,17.90
2016,06,16,12,57,17.90
2016,06,16,12,58,17.80
2016,06,16,12,59,17.80
2016,06,16,13,00,17.80
2016,06,16,13,01,17.80
2016,06,16,13,02,17.80
2016,06,16,13,03,17.80
2016,06,16,13,04,17.60
2016,06,16,13,05,17.60
2016,06,16,13,06,17.60
2016,06,16,13,07,17.70
2016,06,16,13,08,17.80
2016,06,16,13,09,17.90
2016,06,16,13,10,18.00
2016,06,16,13,11,18.00
2016,06,16,13,12,18.10
2016,06,16,13,13,18.10
2016,06,16,13,14,17.90
2016,06,16,13,15,17.80
2016,06,16,13,16,17.70
2016,06,16,13,17,17.70
2016,06,16,13,18,17.70
2016,06,16,13,19,17.60
2016,06,16,13,20,17.60
2016,06,16,13,21,17.50
2016,06,16,13,22,17.50
2016,06,16,13,23,17.40
2016,06,16,13,24,17.50
2016,06,16,13,25,17.50
2016,06,16,13,26,17.60
2016,06,16,13,27,17.70
2016,06,16,13,28,17.80
2016,06,16,13,29,17.90
2016,06,16,13,30,18.00
2016,06,16,13,31,18.10
2016,06,16,13,32,18.10
2016,06,16,13,33,18.20
2016,06,16,13,34,18.20
2016,06,16,13,35,18.20
2016,06,16,13,36,18.20
2016,06,16,13,37,18.20
2016,06,16,13,38,18.20
2016,06,16,13,41,18.20
2016,06,16,13,42,18.20
2016,06,16,13,43,18.10
2016,06,16,13,44,17.90
2016,06,16,13,45,17.80
2016,06,16,13,46,17.80
2016,06,16,13,47,17.70
2016,06,16,13,48,17.50
2016,06,16,13,49,17.50
2016,06,16,13,50,17.50
2016,06,16,13,51,17.50
2016,06,16,13,52,17.40
2016,06,16,13,53,17.40
2016,06,16,13,54,17.40
2016,06,16,13,55,17.40
2016,06,16,13,56,17.50
2016,06,16,13,57,17.50
2016,06,16,13,58,17.60
2016,06,16,13,59,17.70
2016,06,16,14,00,17.70
2016,06,16,14,01,17.70
2016,06,16,14,02,17.70
2016,06,16,14,03,17.70
2016,06,16,14,04,17.70
2016,06,16,14,05,17.70
2016,06,16,14,06,17.70
2016,06,16,14,07,17.80
2016,06,16,14,08,17.90
2016,06,16,14,09,18.20
2016,06,16,14,10,18.30
2016,06,16,14,11,18.40
2016,06,16,14,12,18.50
2016,06,16,14,13,18.60
2016,06,16,14,14,18.60
2016,06,16,14,15,18.70
2016,06,16,14,16,18.60
2016,06,16,14,17,18.60
2016,06,16,14,18,18.70
2016,06,16,14,19,18.60
2016,06,16,14,20,18.40
2016,06,16,14,21,18.10
2016,06,16,14,22,18.00
2016,06,16,14,23,17.90
2016,06,16,14,24,17.90
2016,06,16,14,25,17.90
2016,06,16,14,26,17.80
2016,06,16,14,27,17.80
2016,06,16,14,28,17.80
2016,06,16,14,29,17.70
2016,06,16,14,30,17.60
2016,06,16,14,31,17.60
2016,06,16,14,32,17.70
2016,06,16,14,33,17.80
2016,06,16,14,34,18.00
2016,06,16,14,35,18.20
2016,06,16,14,36,18.30
2016,06,16,14,37,18.40
2016,06,16,14,38,18.50
2016,06,16,14,39,18.60
2016,06,16,14,40,18.60
2016,06,16,14,41,18.70
2016,06,16,14,42,18.70
2016,06,16,14,43,18.70
2016,06,16,14,44,18.60
2016,06,16,14,45,18.60
2016,06,16,14,46,18.60
2016,06,16,14,47,18.60
2016,06,16,14,48,18.50
2016,06,16,14,49,18.50
2016,06,16,14,50,18.50
2016,06,16,14,51,18.50
2016,06,16,14,52,18.50
2016,06,16,14,53,18.50
2016,06,16,14,54,18.60
2016,06,16,14,55,18.70
2016,06,16,14,56,18.70
2016,06,16,14,57,18.70
2016,06,16,14,58,18.60
2016,06,16,14,59,18.60
2016,06,16,15,00,18.50
2016,06,16,15,01,18.50
2016,06,16,15,02,18.50
2016,06,16,15,03,18.60
2016,06,16,15,04,18.70
2016,06,16,15,05,18.70
2016,06,16,15,06,18.70
2016,06,16,15,07,18.70
2016,06,16,15,08,18.70
2016,06,16,15,09,18.70
2016,06,16,15,10,18.60
2016,06,16,15,11,18.50
2016,06,16,15,12,18.40
2016,06,16,15,13,18.40
2016,06,16,15,14,18.40
2016,06,16,15,15,18.40
2016,06,16,15,16,18.40
2016,06,16,15,17,18.50
2016,06,16,15,18,18.50
2016,06,16,15,19,18.30
2016,06,16,15,20,18.20
2016,06,16,15,21,18.20
2016,06,16,15,22,18.20
2016,06,16,15,23,18.30
2016,06,16,15,24,18.40
2016,06,16,15,25,18.40
2016,06,16,15,26,18.40
2016,06,16,15,27,18.40
2016,06,16,15,28,18.30
2016,06,16,15,29,18.40
2016,06,16,15,30,18.30
2016,06,16,15,31,18.20
2016,06,16,15,32,18.10
2016,06,16,15,33,18.10
2016,06,16,15,34,18.10
2016,06,16,15,35,18.10
2016,06,16,15,36,18.00
2016,06,16,15,37,18.00
2016,06,16,15,38,18.00
2016,06,16,15,39,17.90
2016,06,16,15,40,17.80
2016,06,16,15,41,17.90
2016,06,16,15,42,17.90
2016,06,16,15,43,17.90
2016,06,16,15,44,17.90
2016,06,16,15,45,17.90
2016,06,16,15,46,17.90
2016,06,16,15,47,17.80
2016,06,16,15,48,17.80
2016,06,16,15,49,17.70
2016,06,16,15,50,17.60
2016,06,16,15,51,17.60
2016,06,16,15,52,17.70
2016,06,16,15,53,17.70
2016,06,16,15,54,17.70
2016,06,16,15,55,17.70
2016,06,16,15,56,17.80
2016,06,16,15,57,17.90
2016,06,16,15,58,18.00
2016,06,16,15,59,18.10
2016,06,16,16,00,18.20
2016,06,16,16,01,18.20
2016,06,16,16,02,18.20
2016,06,16,16,03,18.20
2016,06,16,16,04,18.10
2016,06,16,16,05,18.10
2016,06,16,16,06,18.10
2016,06,16,16,07,18.10
2016,06,16,16,08,18.10
2016,06,16,16,09,18.10
2016,06,16,16,10,18.00
2016,06,16,16,11,17.90
2016,06,16,16,12,17.80
2016,06,16,16,13,17.80
2016,06,16,16,14,17.80
2016,06,16,16,15,17.80
2016,06,16,16,16,17.80
2016,06,16,16,17,17.70
2016,06,16,16,18,17.70
2016,06,16,16,19,17.60
2016,06,16,16,20,17.50
2016,06,16,16,21,17.40
2016,06,16,16,22,17.40
2016,06,16,16,23,17.30
2016,06,16,16,24,17.30
2016,06,16,16,25,17.30
2016,06,16,16,26,17.20
2016,06,16,16,27,17.10
2016,06,16,16,28,17.10
2016,06,16,16,29,17.00
2016,06,16,16,30,17.00
2016,06,16,16,31,17.00
2016,06,16,16,32,17.10
2016,06,16,16,33,17.10
2016,06,16,16,34,17.10
2016,06,16,16,35,17.20
2016,06,16,16,36,17.30
2016,06,16,16,37,17.40
2016,06,16,16,38,17.40
2016,06,16,16,39,17.40
2016,06,16,16,40,17.50
2016,06,16,16,41,17.60
2016,06,16,16,42,17.60
2016,06,16,16,43,17.70
2016,06,16,16,44,17.80
2016,06,16,16,45,17.80
2016,06,16,16,46,17.80
2016,06,16,16,47,17.80
2016,06,16,16,48,17.70
2016,06,16,16,49,17.70
2016,06,16,16,50,17.70
2016,06,16,16,51,17.70
2016,06,16,16,52,17.80
2016,06,16,16,53,17.80
2016,06,16,16,54,17.80
2016,06,16,16,55,17.90
2016,06,16,16,56,17.90
2016,06,16,16,57,17.90
2016,06,16,16,58,18.00
2016,06,16,16,59,18.00
2016,06,16,17,00,18.10
2016,06,16,17,01,18.00
2016,06,16,17,02,17.90
2016,06,16,17,03,17.80
2016,06,16,17,04,17.80
2016,06,16,17,05,17.80
2016,06,16,17,06,17.70
2016,06,16,17,07,17.70
2016,06,16,17,08,17.70
2016,06,16,17,09,17.70
2016,06,16,17,10,17.70
2016,06,16,17,11,17.70
2016,06,16,17,12,17.80
2016,06,16,17,13,17.90
2016,06,16,17,14,18.00
2016,06,16,17,15,18.00
2016,06,16,17,16,18.10
2016,06,16,17,17,18.10
2016,06,16,17,18,18.10
2016,06,16,17,19,18.00
2016,06,16,17,20,18.00
2016,06,16,17,21,17.90
2016,06,16,17,22,17.80
2016,06,16,17,23,17.70
2016,06,16,17,24,17.70
2016,06,16,17,25,17.60
2016,06,16,17,26,17.60
2016,06,16,17,27,17.50
2016,06,16,17,28,17.40
2016,06,16,17,29,17.30
2016,06,16,17,30,17.30
2016,06,16,17,31,17.20
2016,06,16,17,32,17.20
2016,06,16,17,33,17.20
2016,06,16,17,34,17.20
2016,06,16,17,35,17.30
2016,06,16,17,36,17.40
2016,06,16,17,37,17.40
2016,06,16,17,38,17.40
2016,06,16,17,39,17.40
2016,06,16,17,40,17.40
2016,06,16,17,41,17.40
2016,06,16,17,42,17.40
2016,06,16,17,43,17.40
2016,06,16,17,44,17.40
2016,06,16,17,45,17.40
2016,06,16,17,46,17.50
2016,06,16,17,47,17.50
2016,06,16,17,48,17.50
2016,06,16,17,49,17.50
2016,06,16,17,50,17.50
2016,06,16,17,51,17.30
2016,06,16,17,52,17.20
2016,06,16,17,53,17.10
2016,06,16,17,54,17.00
2016,06,16,17,55,16.90
2016,06,16,17,56,16.90
2016,06,16,17,57,16.90
2016,06,16,17,58,16.90
2016,06,16,17,59,16.90
2016,06,16,18,00,16.90
2016,06,16,18,01,17.00
2016,06,16,18,02,17.10
2016,06,16,18,03,17.10
2016,06,16,18,04,17.00
2016,06,16,18,05,17.00
2016,06,16,18,06,16.90
2016,06,16,18,07,16.90
2016,06,16,18,08,16.90
2016,06,16,18,09,16.90
2016,06,16,18,10,16.90
2016,06,16,18,11,16.90
2016,06,16,18,12,16.90
2016,06,16,18,13,16.80
2016,06,16,18,14,16.80
2016,06,16,18,15,16.80
2016,06,16,18,16,16.80
2016,06,16,18,17,16.80
2016,06,16,18,18,16.80
2016,06,16,18,19,16.80
2016,06,16,18,20,16.80
2016,06,16,18,21,16.80
2016,06,16,18,22,16.70
2016,06,16,18,23,16.70
2016,06,16,18,24,16.80
2016,06,16,18,25,16.80
2016,06,16,18,26,16.80
2016,06,16,18,27,16.80
2016,06,16,18,28,16.80
2016,06,16,18,29,16.80
2016,06,16,18,30,16.80
2016,06,16,18,31,16.90
2016,06,16,18,32,16.90
2016,06,16,18,33,16.90
2016,06,16,18,34,16.80
2016,06,16,18,35,16.80
2016,06,16,18,36,16.80
2016,06,16,18,37,16.80
2016,06,16,18,38,16.70
2016,06,16,18,39,16.70
2016,06,16,18,40,16.70
2016,06,16,18,41,16.70
2016,06,16,18,42,16.70
2016,06,16,18,43,16.70
2016,06,16,18,44,16.70
2016,06,16,18,45,16.70
2016,06,16,18,46,16.70
2016,06,16,18,47,16.70
2016,06,16,18,48,16.70
2016,06,16,18,49,16.60
2016,06,16,18,50,16.60